Location: Dumpton Point
(51.3500°N, 1.4433°E)
Time: 13:06:19
(UTC+00:00)

Envisat - Pass Details

Date: 12 December 2021
Orbit: 764 x 766 km, 98.2° (Epoch: 23 January)

Event Time Altitude Azimuth Distance (km) Brightness Sun altitude
Rises 16:52:13 0° 197° (SSW) 3,222 6.9 -9.7°
Reaches altitude 10° 16:54:50 10° 209° (SSW) 2,301 6.3 -10.0°
Maximum altitude 16:59:09 28° 267° (W) 1,423 5.3 -10.7°
Drops below altitude 10° 17:03:30 10° 326° (NW) 2,316 5.6 -11.3°
Sets 17:06:09 0° 338° (NNW) 3,247 6.3 -11.7°
